Huntsville, AL

3:46 PM CST on November 20, 2017 (GMT -0600)
Huntsville International

Weather History for KHSV - March, 2012

Change the Weather History Date:

Monday, March 5, 2012

  Actual Average Record
Temperature  
Mean Temperature 46 °F 51 °F  
Max Temperature 56 °F 61 °F 81 °F (1910)
Min Temperature 36 °F 40 °F 12 °F (1960)
Degree Days  
Heating Degree Days 19 15  
Month to date heating degree days 58 76  
Since 1 July heating degree days 2182 2528  
Cooling Degree Days 0 0  
Month to date cooling degree days 4 0  
Year to date cooling degree days 8 1  
Moisture  
Dew Point 24 °F    
Average Humidity 44    
Maximum Humidity 64    
Minimum Humidity 24    
Precipitation  
Precipitation 0.00 in 0.17 in 3.31 in (1924)
Month to date precipitation 0.02 0.83  
Year to date precipitation 11.37 10.56  
Snow  
Snow 0.00 in - - ()
Month to date snowfall 0.0  
Since 1 July snowfall T  
Snow Depth 0.00 in    
Sea Level Pressure  
Sea Level Pressure 30.32 in    
Wind  
Wind Speed 9 mph (North)    
Max Wind Speed 21 mph    
Max Gust Speed 28 mph    
Visibility 10 miles    
Events      
T = Trace of Precipitation, MM = Missing Value Source: NWS Daily Summary

Daily Weather History Graph

Daily Weather History Graph

Search for Another Location

Airport or City:

Trip Planner

Search our weather history database for the weather conditions in past years. The results will help you decide how hot, cold, wet, or windy it might be!

Date:

Astronomy

Mar. 05, 2012 Rise Set
Actual Time 6:10 AM CST 5:46 PM CST
Civil Twilight 5:45 AM CST 6:12 PM CST
Nautical Twilight 5:16 AM CST 6:41 PM CST
Astronomical Twilight 4:46 AM CST 7:10 PM CST
Moon 3:09 PM CST (3/5) 4:03 AM CST (3/5)
Length of Visible Light 12h 26m
Length of Day
11h 36m
Waxing Gibbous, 91% of the Moon is Illuminated
Mar 5
Waxing Gibbous
Mar 8
Full
Mar 14
Last Quarter
Mar 22
New
Mar 30
First Quarter

Hourly Weather History & Observations

Time (CST) Temp. Windchill Dew Point Humidity Pressure Visibility Wind Dir Wind Speed Gust Speed Precip Events Conditions
12:53 AM 51.1 °F - 26.1 °F 38% 29.97 in 10.0 mi SW 13.8 mph - N/A   Clear
1:53 AM 50.0 °F - 28.0 °F 43% 30.00 in 10.0 mi WSW 10.4 mph - N/A   Partly Cloudy
2:53 AM 50.0 °F - 28.9 °F 44% 30.03 in 10.0 mi WNW 10.4 mph - N/A   Clear
3:53 AM 50.0 °F - 30.0 °F 46% 30.09 in 10.0 mi WNW 8.1 mph - N/A   Clear
4:53 AM 48.0 °F - 26.1 °F 42% 30.16 in 10.0 mi NW 12.7 mph - N/A   Clear
5:53 AM 44.1 °F 36.8 °F 25.0 °F 47% 30.23 in 10.0 mi NNW 16.1 mph 23.0 mph N/A   Clear
6:53 AM 43.0 °F 37.7 °F 25.0 °F 49% 30.28 in 10.0 mi NNW 9.2 mph - N/A   Clear
7:53 AM 44.1 °F 36.8 °F 23.0 °F 43% 30.33 in 10.0 mi NNW 16.1 mph 21.9 mph N/A   Clear
8:53 AM 46.0 °F 40.2 °F 24.1 °F 42% 30.38 in 10.0 mi NNW 12.7 mph - N/A   Partly Cloudy
9:53 AM 48.9 °F - 24.1 °F 38% 30.39 in 10.0 mi North 10.4 mph 18.4 mph N/A   Partly Cloudy
10:53 AM 50.0 °F - 23.0 °F 35% 30.41 in 10.0 mi North 9.2 mph 20.7 mph N/A   Partly Cloudy
11:53 AM 52.0 °F - 23.0 °F 32% 30.42 in 10.0 mi NNW 6.9 mph - N/A   Clear
12:53 PM 53.1 °F - 21.9 °F 30% 30.41 in 10.0 mi NW 6.9 mph - N/A   Clear
1:53 PM 55.0 °F - 19.0 °F 24% 30.40 in 10.0 mi NNW 12.7 mph - N/A   Clear
2:53 PM 55.9 °F - 19.9 °F 25% 30.40 in 10.0 mi North 12.7 mph 17.3 mph N/A   Clear
3:53 PM 55.0 °F - 19.0 °F 24% 30.40 in 10.0 mi North 6.9 mph - N/A   Clear
4:53 PM 54.0 °F - 19.9 °F 26% 30.41 in 10.0 mi North 5.8 mph - N/A   Clear
5:53 PM 48.9 °F - 19.9 °F 32% 30.42 in 10.0 mi NNE 5.8 mph - N/A   Clear
6:53 PM 45.0 °F 41.2 °F 21.0 °F 39% 30.42 in 10.0 mi ENE 6.9 mph - N/A   Clear
7:53 PM 42.1 °F 38.4 °F 21.9 °F 45% 30.44 in 10.0 mi East 5.8 mph - N/A   Clear
8:53 PM 41.0 °F 37.1 °F 23.0 °F 49% 30.44 in 10.0 mi East 5.8 mph - N/A   Clear
9:53 PM 39.9 °F 37.8 °F 26.1 °F 58% 30.45 in 10.0 mi ESE 3.5 mph - N/A   Clear
10:53 PM 37.9 °F 35.5 °F 26.1 °F 62% 30.45 in 10.0 mi ESE 3.5 mph - N/A   Clear
11:53 PM 37.0 °F 31.6 °F 25.0 °F 62% 30.45 in 10.0 mi ESE 6.9 mph - N/A   Clear